Regional Weather Roundup
Issued by NWS Wakefield, VA

Home | Current Version | Previous Version | Text Only | Print | Product List | Glossary On
Versions: 1 2 3 4 5 6 7 8 9 10 11 12 13 14 15 16 17 18 19 20 21 22 23 24 25 26 27 28 29 30 31 32 33 34 35 36 37 38 39 40 41 42 43 44 45 46 47 48 49 50
000
ASUS41 KAKQ 260315
RWRAKQ

REGIONAL WEATHER ROUNDUP
NATIONAL WEATHER SERVICE WAKEFIELD VA
1100 PM EDT SAT APR 25 2015

Note: "fair" indicates few or no clouds below 12,000 feet with no
significant weather and/or obstructions to visibility. * = Denotes
station may not report precipitation (e.g., rain,snow,etc.),
thunder or fog.

VAZ042-051-052>054-056-260400-
NORTHERN VIRGINIA

CITY           SKY/WX    TMP DP  RH WIND       PRES   REMARKS
WASH NATIONAL  LGT RAIN  45  40  82 N10       29.76F
DULLES         LGT RAIN  41  37  86 N7        29.75F
FORT BELVOIR   NOT AVBL
QUANTICO       CLOUDY    43  39  86 N9        29.76F
FREDERICKSBRG* CLOUDY    43  43 100 N5        29.74F
STAFFORD*      DRIZZLE   41  32  70 N6        29.79F
WARRENTON      CLOUDY    42  42 100 N6        29.75R
CULPEPER*      CLOUDY    43  41  93 N5        29.76R
MANASSAS*      CLOUDY    43  43 100 N9        29.76F
LEESBURG*      LGT RAIN  41  41 100 CALM      29.76F
WINCHESTER     LGT RAIN  41  36  81 CALM      29.74F
FRONT ROYAL*   CLOUDY    37  37 100 NE3       29.73F
LURAY*         DRIZZLE   43  43 100 N6        29.72F
$$

VAZ048-049-060>072-079>083-260400-
CENTRAL AND SOUTH CENTRAL VIRGINIA

CITY           SKY/WX    TMP DP  RH WIND       PRES   REMARKS
RICHMOND       HVY RAIN  46  43  89 NE5       29.70F FOG
CHESTERFIELD*  CLOUDY    46  36  66 S9        29.71F
PETERSBURG*    DRIZZLE   47  46  96 N8        29.72R
HANOVER        CLOUDY    44  43  96 MISG      29.72F
TAPPAHANNOCK*  RAIN      46  43  89 CALM      29.72F
QUINTON*       CLOUDY    45  44  97 SE10      29.67F
CHARLOTTSVILLE CLOUDY    41  39  93 N3        29.73R
GORDONSVILLE*  CLOUDY    41  40  96 CALM      29.73R
ORANGE*        CLOUDY    43  41  93 NW5       29.74F
LOUISA*        CLOUDY    43  41  93 N3        29.71F
BUMPASS*       CLOUDY    42  41  97 NE3       29.71F
FARMVILLE*     CLOUDY    44  44 100 N5        29.69R
CREWE*         CLOUDY    43  42  95 E5        29.67F
FORT PICKETT*  CLOUDY    44  44  98 NE8       29.70F
CHASE CITY*    CLOUDY    47  47 100 N6        29.69F
CLARKSVILLE*   CLOUDY    45  45 100 N6        29.68F
SOUTH HILL*    CLOUDY    43  43  98 N6        29.74S
LAWRENCEVILLE* CLOUDY    44  44 100 CALM      29.68S
EMPORIA*       DRIZZLE   43  43 100 N3        29.70R
$$

VAZ088>098-260400-
SOUTHEAST VIRGINIA

CITY           SKY/WX    TMP DP  RH WIND       PRES   REMARKS
NORFOLK        LGT RAIN  47  45  93 NE9       29.67S FOG
VIRGINIA BEACH LGT RAIN  50  46  86 E9        29.66F
NORFOLK NAVAL  LGT RAIN  50  46  86 NE14      29.71R FOG
WEST POINT*    CLOUDY    47  45  91 N6        29.75R
SALUDA*        CLOUDY    46  45  95 N6        29.72S
NEWPORT NEWS   LGT RAIN  50  45  83 NE8       29.68F
LANGLEY AFB    LGT RAIN  48  46  93 N12       29.71R FOG
FORT EUSTIS    LGT RAIN  46  46 100 NE6       29.68S FOG
WILLIAMSBURG*  CLOUDY    48  48 100 E3        29.69F
HR EXEC AP*    CLOUDY    48  43  81 N6        29.69S
FRANKLIN*      CLOUDY    45  45  99 N6        29.69R FOG
WAKEFIELD      CLOUDY    46  44  93 VRB3      29.69S FOG
$$

VAZ020-022-025-037-045-260400-
WEST CENTRAL AND SOUTHWEST VIRGINIA

CITY           SKY/WX    TMP DP  RH WIND       PRES   REMARKS
STAUNTON*      DRIZZLE   41  39  92 CALM      29.72F
WAYNESBORO*    CLOUDY    39  38  99 CALM      29.70F
HOT SPRINGS VA SNOW      34  34 100 E3        29.62F VSB<1/4
LYNCHBURG      CLOUDY    41  40  96 NE7       29.70F
DANVILLE       CLOUDY    46  42  86 NE8       29.69F
SOUTH BOSTON*  CLOUDY    44  43  95 NE3       29.69F
MARTINSVILLE   CLOUDY    44  44 100 N3        29.71S FOG
ROANOKE        LGT RAIN  42  41  96 SW5       29.70F
BLACKSBURG     RAIN      38  38  99 NE8       29.69R
DUBLIN*        CLOUDY    42  42 100 NE7       29.67F FOG
MARION*        MOCLDY    47  44  90 E7        29.65R
HILLSVILLE*    LGT RAIN  47  47  97 S5        29.62F
RICHLANDS*     LGT RAIN  59  51  74 CALM      29.58F
WISE*          CLOUDY    57  55  94 NE6       29.56F
ABINGDON*      PTCLDY    57  49  76 E5        29.57F
$$

MDZ021>025-VAZ099-100-260400-
SOUTHERN MARYLAND AND THE DELMARVA PENINSULA

CITY           SKY/WX    TMP DP  RH WIND       PRES   REMARKS
PATUXENT RIVER LGT RAIN  45  43  93 N5        29.74R
BAY BRIDGE APT LGT RAIN N/A N/A N/A NW7       29.77R
LEONARDTOWN    CLOUDY    43  41  93 CALM      29.76S
DOVER          NOT AVBL
GEORGETOWN     LGT RAIN  45  43  93 VRB3      29.75R
EASTON         RAIN      46  46 100 N6        29.80R
CAMBRIDGE      CLOUDY    45  43  93 CALM      29.75S
SALISBURY      LGT RAIN  45  44  97 NW7       29.74R FOG
OCEAN CITY     RAIN      45  43  93 N6        29.74R FOG
WALLOPS ISLAND LGT RAIN  44  43  96 N6        29.72S
ACCOMACK*      RAIN      45  34  65 NW6       29.74R
$$

NCZ012>017-030>032-260400-
NORTH CENTRAL AND EASTERN NORTH CAROLINA

CITY           SKY/WX    TMP DP  RH WIND       PRES   REMARKS
ROANOKE RAPIDS CLOUDY    46  46 100 N9        29.67R FOG
RALEIGH        LGT RAIN  50  49  96 N6        29.66R VSB 1/2
ELIZABETH CITY LGT RAIN  51  49  92 E13       29.63F
AHOSKIE*       DRIZZLE   46  45  96 NE3       29.65F
EDENTON*       HVY RAIN  50  49  95 E7        29.62F
CURRITUCK*     CLOUDY    50  48  92 NE9       29.66F
KILL DEVIL HLS CLOUDY    53  52  98 E6        29.61F FOG
MANTEO         CLOUDY    53  52  97 E12       29.62F
CAPE HATTERAS  LGT RAIN  56  56 100 NE3       29.58F
TARBORO*       CLOUDY    53  52  95 N3        29.65R FOG
GOLDSBORO      NOT AVBL
WASHINGTON     LGT RAIN  54  53  97 NE7       29.62S
GREENVILLE     CLOUDY    55  55 100 E5        29.65S FOG
NEW BERN       CLOUDY    60  57  89 NE6       29.61F
WILMINGTON     CLOUDY    68  65  90 SW13      29.61R
$$

VAZ048-260400-
ELSEWHERE

CITY           SKY/WX    TMP DP  RH WIND       PRES   REMARKS
HARRISBURG PA  CLOUDY    47  30  51 NW6       29.71S
BALTIMORE      RAIN      41  39  93 W5        29.75F FOG
ANNAPOLIS      LGT RAIN  44  40  85 NW6       29.77R FOG
ANDREWS AFB    LGT RAIN  43  41  93 N8        29.74F
PHILADELPHIA   CLOUDY    50  34  54 SW8       29.72S
HENDERSON NC   DRIZZLE   46  44  96 N6        29.67S
GREENSBORO     DRIZZLE   45  44  97 NE8       29.66S FOG
ROCKY MOUNT    CLOUDY    55  54  96 N3        29.64R FOG
$$

VAZ100-260400-
MARINE

STATION/POSITION TIME  TEMP    WIND        PRES    WAVE   SWELL
                       AIR SEA DIR/SP/G            HT/PER HT/PER
                 (UTC) (F)     (DEG/KT/KT) (MB)    (FT/S) (FT/S)
BRANDYWINE LGT   0200   47 51  250/ 14/ 15 1006.5F
CAPE MAY NJ      0200   48 56  250/ 12/ 13 1006.0F
LEWES DE         0200   45 51  180/  1/  2 1006.3F
15NM E FENWICK I 0250   45 47              1006.3F   1/11
OCEAN-CITY-INLET 0200   45 51   60/  1/  3 1006.1F
WACHAPREAGUE VA  0200   45 55   90/  6/  8 1006.0F
THOMAS POINT MD  0300   44 52  320/  9/ 10 1008.4R
GOOSES REEF MD   0300   45 53   10/ 10/ 14   N/A
COVE POINT MD    0200   44      30/  6/  8 1007.5R
SOLOMONS ISLAND  0200      54                N/A
BISHOPS HEAD MD  0200   46 54  320/  4/  5 1006.9R
PINEY POINT MD   0200           40/  5/  6   N/A
CAMBRIDGE MD     0200   45 58  250/  5/  5 1007.3R
LEWISETTA VA     0200   46 55              1006.5R
RAPPAHANNOCK LGT 0200           80/  8/  9 1006.5R
YORK RVR RNG VA  0200   47      90/ 10/ 12 1005.1F
YORKTOWN VA      0200   48 59   80/ 12/ 14 1005.3F
JAMESTOWN VA     0300   46 63   50/  6/ 10 1004.4F
DOMINION TERM VA 0200   48      90/ 12/ 16 1004.8F
KIPTOPEKE VA     0200      61   90/  7/ 11   N/A
CHES BAY BRIDGE  0200   47 55   60/ 17/ 19 1004.3F
CAPE HENRY VA    0200   47      70/ 18/ 22 1003.4F
CHESAPEAKE LGHT  0200   47      60/ 16/ 17 1005.6F
WILLOUBY STN VA  0200   48      90/ 15/ 18 1005.1F
S CRANEY ISL VA  0200           90/ 10/ 13 1004.8F
CAPE HENRY BUOY  0228      51                N/A     3/ 3
1ST LANDING BUOY 0300                      1004.9R   3/ 3
OFFSHORE WE BUOY 0211      50                N/A     3/ 6   2/ 6
64NM E OF VA BCH 0250   54 59   70/ 17/ 19 1003.4F   3/ 6   2/ 6
DUCK PIER NC     0200   51 55   60/ 14/ 16 1003.2F
44056 DUCK FRF   0211      54                N/A     3/ 4
OREGON INLET NC  0200   53 58   60/  8/ 10 1003.7F
HATTERAS NC      0200   60 65   60/  6/  8 1002.5F
DIAMOND SHLS NC  0250   67 74   10/  2/  6 1001.1F   4/ 6   3/ 6
CAPE LOOKOUT NC  0300   66     270/  9/ 11 1001.2F
$$



USA.gov is the U.S. government's official web portal to all federal, state and local government web resources and services.